Find Starlink 35459

NORAD ID: 65856 Int'l Des: 2025-223 Owner: SPXS Country: US Constellation: starlink operational
LEOCIRCULAR

Current View

Loading 3D Globe...

About Starlink 35459

Description loading...

Upcoming Passes

Passes for default location (London). Set your location on the main map for personalized predictions.

Altitude History

Loading altitude history...

Two-Line Element Set

1 65856U 25223C 26149.55402193 .00038585 00000-0 11464-2 0 9992
2 65856 53.1614 278.0540 0001525 53.2347 306.8795 15.34424312 36595
Epoch: May 29, 2026 • Age: 18 hours

Current Status

Altitude 481.5 km
Velocity 7.62 km/s
Sub-Earth Point -52.66°S, 166.42°W
Launch Date Oct 3, 2025
Age 0.6 years
Type internet

Technical Details

Classification Payload
Mass 575.00 kg
Dry Mass 530.00 kg
Total Mass 575.00 kg
Length 0.30 m
Diameter 4.10 m
Span 29.00 m
Shape Box + pan
Manufacturer SPXS
Bus Type Starlink V2MO
Phase Status In Orbit
Owner/State SPXS/US

Most Searched